{"data":{"norad_id":58250,"intl_designator":"2023-171W","name":"STARLINK-30808","alt_names":[],"object_type":"PAYLOAD","status":"ACTIVE","operator":null,"country":"US","launch_date":"2023-11-08","launch_site_code":"AFETR","launch_vehicle":null,"mission":null,"orbit_class":"UNKNOWN","rcs_meters":null,"size_class":null,"mass_kg":null,"dimensions":null,"purposes":["comms"],"wikipedia_slug":null,"has_3d_model":false,"image_url":null,"decayed_at":null,"tle_current":{"epoch":"2026-05-24T14:42:55.462752Z","epoch_age_seconds":104659,"freshness":"FRESH","line1":"1 58250U 23171W   26144.61314193  .00030280  00000+0  10993-2 0  9995","line2":"2 58250  42.9996 216.6345 0001952 271.1881  88.8747 15.27759407141345","mean_motion":15.27759407,"eccentricity":0.0001952,"inclination_deg":42.9996,"raan_deg":216.6345,"arg_perigee_deg":271.1881,"mean_anomaly_deg":88.8747,"bstar":0.0010993,"rev_number":14134,"period_min":94.255678832812,"perigee_km":481.17274083905,"apogee_km":483.85113818504,"semimajor_km":6860.648939512,"source":"CELESTRAK","updated_at":"2026-05-25T13:38:18.583458Z"}}}